This demonstration page uses our WeatherBlox Daily Observations layout. Learn more.

38.88101, -77.10428

Hourly Observations for June 22, 2015

Temp ( °F °C ) Dew Point ( °F °C ) Humidity (%) Winds ( mph kmh ) Pressure ( in mb ) Visibility ( mi km ) Precip ( " mm )
12:52 am 00:52 Mostly Cloudy 86 30 66 18.9 51 51 NW 9 15 29.91 1013 10 16.0934 0 0
1:52 am 01:52 Cloudy 84 28.9 66 18.9 55 55 NNW 8 13 29.92 1013 10 16.0934 0 0
2:52 am 02:52 Mostly Cloudy 81 27.2 67 19.4 62 62 NNW 6 9 29.93 1014 10 16.0934 0 0
3:52 am 03:52 Mostly Cloudy 81 27.2 66 18.9 61 61 NW 9 15 29.96 1014 10 16.0934 0 0
4:52 am 04:52 Mostly Cloudy 79 26.1 66 18.9 65 65 NNW 8 13 29.96 1015 10 16.0934 0 0
5:52 am 05:52 Partly Cloudy 79 26.1 66 18.9 65 65 NNW 10 17 29.98 1015 10 16.0934 0 0
6:52 am 06:52 Partly Cloudy 79 26.1 67 19.4 67 67 N 9 15 30.01 1016 10 16.0934 0 0
7:52 am 07:52 Partly Cloudy 82 27.8 68 20 63 63 NNW 8 13 30.03 1017 10 16.0934 0 0
8:52 am 08:52 Partly Cloudy 85 29.4 67 19.4 55 55 NNW 8 13 30.05 1018 10 16.0934 0 0
9:52 am 09:52 Partly Cloudy 85 29.4 67 19.4 55 55 NNW 10 17 30.05 1018 10 16.0934 0 0
10:52 am 10:52 Partly Cloudy 88 31.1 70 21.1 55 55 NNW 7 11 30.05 1018 10 16.0934 0 0
11:52 am 11:52 Partly Cloudy 88 31.1 69 20.6 54 54 ENE 5 7 30.04 1017 10 16.0934 0 0
12:52 pm 12:52 Partly Cloudy 91 32.8 64 17.8 41 41 Calm 30.03 1017 10 16.0934 0 0
1:52 pm 13:52 Partly Cloudy 92 33.3 64 17.8 40 40 Calm 30.01 1016 10 16.0934 0 0
2:52 pm 14:52 Partly Cloudy 93 33.9 63 17.2 37 37 NW 8 13 30.05 1018 10 16.0934 0 0
3:52 pm 15:52 Mostly Cloudy 92 33.3 63 17.2 38 38 W 9 15 30.04 1017 10 16.0934 0 0
4:52 pm 16:52 Mostly Cloudy 92 33.3 66 18.9 43 43 WSW 14 22 30.01 1016 10 16.0934 0 0
5:52 pm 17:52 Cloudy 92 33.3 63 17.2 38 38 SW 10 17 29.99 1016 10 16.0934 0 0
6:52 pm 18:52 Cloudy 91 32.8 64 17.8 41 41 SW 5 7 29.98 1015 10 16.0934 0 0
7:52 pm 19:52 Cloudy 88 31.1 68 20 52 52 SSW 7 11 30 1016 10 16.0934 0 0
8:52 pm 20:52 Mostly Cloudy 86 30 70 21.1 59 59 S 6 9 30.01 1016 10 16.0934 0 0
9:52 pm 21:52 Partly Cloudy 84 28.9 75 23.9 74 74 S 8 13 30.01 1016 10 16.0934 0 0
10:52 pm 22:52 Mostly Cloudy 84 28.9 71 21.7 65 65 S 12 19 29.99 1016 10 16.0934 0 0
11:52 pm 23:52 Mostly Cloudy 83 28.3 71 21.7 67 67 S 9 15 29.98 1015 10 16.0934 0 0

Powered by AerisWeather